This is the latest recevied weather packets stored in our database for station/object WA1TYB-13. If no packets are shown the sender has not sent any weather packets the latest 10 day(s).
| Time | Temp. | Humidity | Pressure | Rain* | Wind** | Luminosity | Snow |
|---|---|---|---|---|---|---|---|
| 1777528496 | 3.33° C | 64% | 1025.3 hPa | 0 mm | - | 0 W/m² | - |
| 1777528195 | 3.33° C | 63% | 1025.4 hPa | 0 mm | - | 0 W/m² | - |
| 1777527892 | 3.33° C | 63% | 1025.4 hPa | 0 mm | - | 0 W/m² | - |
| 1777527587 | 3.89° C | 63% | 1025.1 hPa | 0 mm | - | 0 W/m² | - |
| 1777527283 | 3.89° C | 62% | 1025.2 hPa | 0 mm | - | 0 W/m² | - |
| 1777526978 | 3.89° C | 62% | 1025.2 hPa | 0 mm | - | 0 W/m² | - |
| 1777526674 | 3.89° C | 62% | 1025 hPa | 0 mm | - | 0 W/m² | - |
| 1777526370 | 4.44° C | 62% | 1025.1 hPa | 0 mm | - | 0 W/m² | - |
| 1777526065 | 4.44° C | 60% | 1025.2 hPa | 0 mm | - | 0 W/m² | - |
| 1777525762 | 3.89° C | 61% | 1025.2 hPa | 0 mm | - | 0 W/m² | - |
| 1777525459 | 4.44° C | 61% | 1025.2 hPa | 0 mm | - | 0 W/m² | - |
| 1777525155 | 5° C | 60% | 1025.2 hPa | 0 mm | - | 0 W/m² | - |
| 1777524852 | 5° C | 60% | 1025.3 hPa | 0 mm | - | 0 W/m² | - |
| 1777524550 | 4.44° C | 61% | 1025.2 hPa | 0 mm | - | 0 W/m² | - |
| 1777524247 | 5° C | 60% | 1025.2 hPa | 0 mm | - | 0 W/m² | - |
| 1777523943 | 5° C | 59% | 1025.3 hPa | 0 mm | - | 0 W/m² | - |
| 1777523639 | 5° C | 58% | 1025.1 hPa | 0 mm | - | 0 W/m² | - |
| 1777523335 | 5.56° C | 57% | 1025 hPa | 0 mm | - | 0 W/m² | - |
| 1777523031 | 5° C | 59% | 1025.2 hPa | 0 mm | - | 0 W/m² | - |
| 1777522729 | 5° C | 59% | 1025.1 hPa | 0 mm | - | 0 W/m² | - |
| 1777522425 | 5.56° C | 57% | 1025.2 hPa | 0 mm | - | 0 W/m² | - |
| 1777522122 | 5.56° C | 57% | 1025.2 hPa | 0 mm | - | 0 W/m² | - |
| 1777521819 | 5.56° C | 57% | 1025 hPa | 0 mm | - | 0 W/m² | - |
| 1777521515 | 6.11° C | 56% | 1025.1 hPa | 0 mm | - | 0 W/m² | - |
| 1777521212 | 6.11° C | 56% | 1025 hPa | 0 mm | - | 0 W/m² | - |
* Rain latest hour (hover to see other rain measurements)
** Current wind speed in m/s (hover to see current wind gust speed)